TimeCST,TemperatureF,Dew PointF,Humidity,Sea Level PressureIn,VisibilityMPH,Wind Direction,Wind SpeedMPH,Gust SpeedMPH,PrecipitationIn,Events,Conditions,WindDirDegrees,DateUTC
12:53 AM,23.0,18.0,81,30.30,10.0,SSE,10.4,-,N/A,,Clear,160,2013-01-10 06:53:00
1:53 AM,25.0,19.9,81,30.29,10.0,SSE,10.4,-,N/A,,Clear,150,2013-01-10 07:53:00
2:53 AM,26.1,21.0,81,30.29,10.0,SSE,10.4,-,N/A,,Clear,150,2013-01-10 08:53:00
3:53 AM,24.8,21.2,86,30.21,10.0,SSE,8.1,-,N/A,,Clear,150,2013-01-10 09:53:00
4:53 AM,27.0,21.9,81,30.25,10.0,SE,6.9,-,N/A,,Clear,140,2013-01-10 10:53:00
5:53 AM,28.9,23.0,78,30.24,10.0,South,11.5,-,N/A,,Clear,170,2013-01-10 11:53:00
6:53 AM,30.9,23.0,72,30.24,10.0,South,11.5,-,N/A,,Clear,170,2013-01-10 12:53:00
7:53 AM,30.0,21.9,72,30.25,10.0,SSE,10.4,-,N/A,,Clear,160,2013-01-10 13:53:00
8:53 AM,30.0,21.9,72,30.24,10.0,SSE,10.4,-,N/A,,Clear,150,2013-01-10 14:53:00
9:53 AM,36.0,24.1,62,30.22,10.0,South,11.5,-,N/A,,Clear,180,2013-01-10 15:53:00
10:53 AM,37.9,23.0,55,30.20,10.0,South,16.1,-,N/A,,Clear,180,2013-01-10 16:53:00
11:53 AM,39.2,21.2,49,30.08,10.0,South,19.6,24.2,N/A,,Clear,180,2013-01-10 17:53:00
12:53 PM,37.9,21.9,53,30.09,10.0,SSE,16.1,-,N/A,,Clear,150,2013-01-10 18:53:00
1:53 PM,37.0,23.0,57,30.05,10.0,SSE,11.5,-,N/A,,Clear,150,2013-01-10 19:53:00
2:53 PM,37.9,21.9,53,30.04,10.0,SSE,12.7,-,N/A,,Clear,150,2013-01-10 20:53:00
3:53 PM,37.0,24.1,59,30.01,10.0,SE,9.2,-,N/A,,Overcast,140,2013-01-10 21:53:00
4:53 PM,39.0,21.0,49,29.98,10.0,ESE,5.8,-,N/A,,Overcast,120,2013-01-10 22:53:00
5:53 PM,36.0,24.1,62,29.95,10.0,SE,10.4,-,0.00,Rain,Light Rain,130,2013-01-10 23:53:00
6:53 PM,33.1,28.0,82,29.91,5.0,ESE,8.1,-,0.05,Rain,Light Rain,120,2013-01-11 00:53:00
7:22 PM,33.8,28.4,81,29.84,5.0,SE,11.5,-,0.04,Rain,Light Rain,130,2013-01-11 01:22:00
7:53 PM,33.1,30.0,89,29.86,8.0,SE,11.5,-,0.07,Rain,Light Rain,130,2013-01-11 01:53:00
8:29 PM,33.8,30.2,87,29.78,4.0,SE,15.0,26.5,0.00,,Overcast,140,2013-01-11 02:29:00
8:53 PM,33.1,30.9,92,29.83,3.0,SE,13.8,-,0.01,Rain,Light Rain,130,2013-01-11 02:53:00
9:07 PM,33.8,30.2,87,29.75,2.5,SE,15.0,21.9,0.00,,Overcast,130,2013-01-11 03:07:00
9:27 PM,33.8,30.2,87,29.75,3.0,SE,13.8,19.6,0.01,,Overcast,140,2013-01-11 03:27:00
9:53 PM,33.1,30.9,92,29.79,2.0,SE,12.7,-,0.01,,Overcast,140,2013-01-11 03:53:00
10:04 PM,33.8,30.2,87,29.72,1.8,SE,13.8,-,N/A,,Overcast,140,2013-01-11 04:04:00
10:12 PM,33.8,30.2,87,29.72,2.0,SE,11.5,-,N/A,,Overcast,140,2013-01-11 04:12:00
10:24 PM,33.8,30.2,87,29.72,2.0,SSE,11.5,-,N/A,,Overcast,150,2013-01-11 04:24:00
10:53 PM,33.1,30.9,92,29.76,2.0,SSE,13.8,-,N/A,,Overcast,150,2013-01-11 04:53:00
11:03 PM,33.8,30.2,87,29.70,1.8,SSE,12.7,-,N/A,,Overcast,150,2013-01-11 05:03:00
11:41 PM,33.8,32.0,93,29.68,2.0,SSE,12.7,-,N/A,,Overcast,160,2013-01-11 05:41:00
11:53 PM,33.1,32.0,96,29.73,1.8,SSE,10.4,-,N/A,,Overcast,150,2013-01-11 05:53:00